Retour au catalogue

CZ-6A DEB

ActifSSO
NORAD 54915·DEBRIS·🇨🇳 China

Lancé Nov 11, 2022 depuis Taiyuan Satellite Launch Center

Loading…

Prochains Passages (prochaines 24 heures)

TLE

FraisSource: Space-Track

Époque: Sep 14, 2026, 10:03 UTC

1 54915U 22151RC  26257.41894457  .00000382  00000-0  24651-3 0  9993
2 54915  98.8563 246.3250 0063273  96.7080 264.1295 14.07749523196566

Suivez CZ-6A DEB en temps réel avec AllMySat

Download on the App Store